Cloud_Cover
3 87 3 0 0 0 0 0 0 93 2 0 0 0 0 0 50 39 76 98 82 1 98 99 18 78 98 100 46 68 6 3 72
0 98 5 0 0 0 0 0 84 41 71 24 3 0 0 39 72 42 34 19 37 100 53 64 79 2 97 100 32 33 4 0 15
4 100 6 5 1 0 0 10 39 99 100 10 0 0 0 100 25 51 52 14 32 56 100 100 78 100 100 22 81 100 45 16 2
84 100 54 5 5 21 62 29 0 7 98 98 0 0 2 100 91 83 86 24 19 15 98 100 31 99 100 35 81 93 100 100 44
100 100 70 5 5 48 80 99 98 97 99 50 37 0 94 88 23 48 48 86 99 42 100 100 100 100 50 100 100 100 100 99 98
100 100 66 5 5 7 100 100 100 100 87 100 0 0 43 86 54 98 100 99 100 100 100 100 100 100 34 100 89 44 100 100 19
100 100 90 5 12 5 49 100 100 57 1 0 0 0 9 30 54 78 47 63 46 18 6 0 100 87 63 100 98 49 100 100 100
100 100 56 5 84 45 5 5 12 1 0 2 5 2 0 3 49 97 97 22 6 4 8 5 10 24 82 61 63 100 100 100 100
100 100 25 20 84 49 5 5 5 4 1 1 5 5 5 25 37 19 100 79 14 12 0 4 92 70 8 81 18 100 90 93 100
100 100 98 80 89 41 5 17 5 5 5 5 88 5 5 91 98 93 93 99 100 100 90 19 66 67 81 39 8 9 100 100 100
100 98 100 100 76 71 5 5 43 5 5 5 86 5 9 5 15 99 98 100 100 100 100 76 34 75 38 44 83 55 100 100 98
98 100 100 100 79 100 9 5 8 49 9 5 71 14 41 25 54 86 5 96 100 100 100 99 100 92 100 100 97 86 100 100 100
96 100 100 100 100 100 100 8 57 72 5 13 11 5 41 46 91 70 23 49 78 100 100 100 52 42 23 95 97 100 100 100 100
100 99 100 100 100 100 100 77 100 75 20 69 22 6 5 5 53 67 10 33 100 100 100 48 37 26 98 100 100 100 100 100 100
100 100 100 100 100 100 100 96 100 69 69 56 44 14 34 7 40 18 46 100 100 100 100 54 13 5 86 98 100 100 73 100 100
100 100 100 100 100 100 100 19 100 100 100 52 28 6 83 5 76 96 100 96 100 100 100 8 8 5 5 5 8 5 6 46 98
100 100 100 100 100 100 100 95 70 100 100 86 94 99 81 93 86 100 96 99 100 100 100 41 7 5 5 5 5 5 5 5 16
100 100 100 100 100 100 100 100 100 66 100 100 34 93 100 100 100 100 99 100 100 100 100 13 6 12 5 5 5 5 5 7 9
100 100 100 100 100 100 100 100 100 100 100 100 100 98 100 100 100 100 100 100 100 100 100 24 37 5 14 8 5 5 5 9 15
100 100 100 100 100 100 100 100 100 100 100 100 100 100 100 100 100 100 100 100 100 100 49 30 46 11 45 5 52 5 5 6 56